Location: Cotdoussan
(43.0366°N, 0.0068°E)
Time: 22:03:08
(UTC+00:00)

Timation 2 Rocket - Visible Passes

Search period start: 18 November 2025 00:00
Search period end: 28 November 2025 00:00
Orbit: 903 x 1075 km, 70.0° (Epoch: 18 November)

Date Brightness Start Highest point End Pass type
(mag) Time Alt. Az. Time Alt. Az. Time Alt. Az.
18 Nov 4.2 17:22:16 10° SSW 17:29:08 86° ESE 17:36:02 10° NNE visible
18 Nov 6.2 19:12:15 10° W 19:17:29 23° NW 19:22:43 10° N visible
19 Nov 4.9 17:52:23 10° SW 17:59:04 53° WNW 18:05:46 10° NNE visible
19 Nov 6.6 19:44:57 10° WNW 19:48:14 14° NW 19:51:30 10° N visible
20 Nov 5.8 18:23:22 10° WSW 18:29:18 30° NW 18:35:14 10° N visible
21 Nov 4.5 17:04:18 10° SSW 17:11:10 74° WNW 17:18:02 10° NNE visible
21 Nov 6.4 18:55:21 10° W 18:59:52 18° NW 19:04:22 10° N visible
22 Nov 5.3 17:34:48 10° WSW 17:41:14 41° NW 17:47:38 10° NNE visible
22 Nov 6.6 19:29:02 10° NW 19:30:45 11° NNW 19:32:29 10° NNW visible
23 Nov 6.1 18:06:11 10° W 18:11:36 24° NW 18:16:59 10° N visible
24 Nov 6.4 18:38:43 10° WNW 18:42:18 14° NW 18:45:52 10° N visible
25 Nov 5.7 17:17:23 10° WSW 17:23:27 32° NW 17:29:28 10° N visible
26 Nov 6.3 17:49:13 10° W 17:53:57 19° NW 17:58:38 10° N visible
27 Nov 6.5 18:22:34 10° NW 18:24:47 12° NNW 18:27:00 10° NNW visible
